User: anonymous   Login
Location: Unspecified
(0.0000°N, 0.0000°E)
Time: 00:07:59
(UTC+00:00)
Language:

HODOYOSHI 3 - Orbit

View from above orbital plane
View from above orbital plane
View from above satellite
View from above satellite

Ground track
Ground track

The orbit data is extracted from the following two-line orbital elements,

1 40015U 14033F   17264.76937431  .00000135  00000-0  25576-4 0  9999
2 40015  97.8613 155.7501 0036389 325.9608  33.9269 14.78279276175741
Epoch (UTC): 21 September 2017 18:27:53
Eccentricity: 0.0036389
inclination: 97.8613°
perigee height: 609 km
apogee height: 660 km
right ascension of ascending node: 155.7501°
argument of perigee: 325.9608°
revolutions per day: 14.78279276
mean anomaly at epoch: 33.9269°
orbit number at epoch: 17574

The dashed part of the orbit path shows where the satellite is in the earth's shadow,  

DLR